Time,TemperatureF,DewpointF,PressureIn,WindDirection,WindDirectionDegrees,WindSpeedMPH,WindSpeedGustMPH,Humidity,HourlyPrecipIn,Conditions,Clouds,dailyrainin,SoftwareType,DateUTC
2013-05-25 00:01:00,53.4,44.6,28.94,ESE,121,6.0,11.0,72,0.04,,,-99.99,FreeWX-Wi 1.01,2013-05-25 05:01:00,
2013-05-25 00:06:00,53.4,45.0,28.94,ESE,121,6.0,10.5,73,0.04,,,-99.99,FreeWX-Wi 1.01,2013-05-25 05:06:00,
2013-05-25 00:11:00,53.6,44.4,28.94,ESE,121,6.0,10.1,71,0.00,,,-99.99,FreeWX-Wi 1.01,2013-05-25 05:11:00,
2013-05-25 00:16:00,53.8,44.2,28.94,ESE,121,7.0,8.7,70,0.00,,,-99.99,FreeWX-Wi 1.01,2013-05-25 05:16:00,
2013-05-25 00:21:00,53.6,44.4,28.94,ESE,121,7.0,7.6,71,0.00,,,-99.99,FreeWX-Wi 1.01,2013-05-25 05:21:00,
2013-05-25 00:26:00,53.4,44.6,28.94,ESE,121,7.0,7.0,72,0.00,,,-99.99,FreeWX-Wi 1.01,2013-05-25 05:26:00,
2013-05-25 00:31:00,53.2,44.4,28.94,ESE,121,7.0,0.0,72,0.00,,,-99.99,FreeWX-Wi 1.01,2013-05-25 05:31:00,
2013-05-25 00:36:00,53.1,43.9,28.94,ESE,121,7.0,7.2,71,0.00,,,-99.99,FreeWX-Wi 1.01,2013-05-25 05:36:00,
2013-05-25 00:41:00,53.1,44.2,28.94,ESE,121,7.0,7.0,72,0.00,,,-99.99,FreeWX-Wi 1.01,2013-05-25 05:41:00,
2013-05-25 00:47:00,52.9,43.7,28.94,ESE,121,7.0,0.0,71,0.00,,,-99.99,FreeWX-Wi 1.01,2013-05-25 05:47:00,
2013-05-25 00:52:00,53.2,43.3,28.94,ESE,121,7.0,0.0,69,0.00,,,-99.99,FreeWX-Wi 1.01,2013-05-25 05:52:00,
2013-05-25 00:57:00,53.2,43.7,28.94,ESE,121,7.0,8.7,70,0.00,,,-99.99,FreeWX-Wi 1.01,2013-05-25 05:57:00,
2013-05-25 01:02:00,53.2,43.3,28.94,ESE,121,7.0,8.7,69,0.00,,,-99.99,FreeWX-Wi 1.01,2013-05-25 06:02:00,
2013-05-25 01:07:00,53.2,43.3,28.94,ESE,122,7.0,8.1,69,0.00,,,-99.99,FreeWX-Wi 1.01,2013-05-25 06:07:00,
2013-05-25 01:12:00,53.1,43.2,28.94,ESE,122,7.0,0.0,69,0.00,,,-99.99,FreeWX-Wi 1.01,2013-05-25 06:12:00,
2013-05-25 01:17:00,53.1,43.2,28.94,ESE,122,7.0,0.0,69,0.00,,,-99.99,FreeWX-Wi 1.01,2013-05-25 06:17:00,
2013-05-25 01:22:00,53.1,43.5,28.94,ESE,122,7.0,0.0,70,0.00,,,-99.99,FreeWX-Wi 1.01,2013-05-25 06:22:00,
2013-05-25 01:27:00,53.1,43.9,28.94,ESE,122,7.0,0.0,71,0.00,,,-99.99,FreeWX-Wi 1.01,2013-05-25 06:27:00,
2013-05-25 01:32:00,53.1,43.9,28.94,ESE,122,7.0,0.0,71,0.00,,,-99.99,FreeWX-Wi 1.01,2013-05-25 06:32:00,
2013-05-25 01:37:00,52.9,44.1,28.94,ESE,122,7.0,0.0,72,0.00,,,-99.99,FreeWX-Wi 1.01,2013-05-25 06:37:00,
2013-05-25 01:42:00,52.9,44.1,28.94,ESE,122,7.0,0.0,72,0.00,,,-99.99,FreeWX-Wi 1.01,2013-05-25 06:42:00,
2013-05-25 01:47:00,53.1,44.2,28.94,ESE,122,7.0,0.0,72,0.00,,,-99.99,FreeWX-Wi 1.01,2013-05-25 06:47:00,
2013-05-25 01:52:00,52.9,43.7,28.94,ESE,122,7.0,0.0,71,0.00,,,-99.99,FreeWX-Wi 1.01,2013-05-25 06:52:00,
2013-05-25 01:57:00,53.1,43.9,28.94,ESE,122,7.0,0.0,71,0.00,,,-99.99,FreeWX-Wi 1.01,2013-05-25 06:57:00,
2013-05-25 02:03:00,53.1,43.2,28.91,ESE,122,7.0,0.0,69,0.00,,,-99.99,FreeWX-Wi 1.01,2013-05-25 07:03:00,
2013-05-25 02:08:00,53.2,43.3,28.91,ESE,122,7.0,0.0,69,0.00,,,-99.99,FreeWX-Wi 1.01,2013-05-25 07:08:00,
2013-05-25 02:13:00,53.2,43.3,28.91,ESE,122,7.0,0.0,69,0.00,,,-99.99,FreeWX-Wi 1.01,2013-05-25 07:13:00,
2013-05-25 02:18:00,53.2,43.3,28.91,ESE,122,7.0,0.0,69,0.00,,,-99.99,FreeWX-Wi 1.01,2013-05-25 07:18:00,
2013-05-25 02:23:00,53.2,43.7,28.91,ESE,122,7.0,11.4,70,0.00,,,-99.99,FreeWX-Wi 1.01,2013-05-25 07:23:00,
2013-05-25 02:28:00,53.2,43.3,28.91,ESE,121,7.0,10.5,69,0.00,,,-99.99,FreeWX-Wi 1.01,2013-05-25 07:28:00,
2013-05-25 02:33:00,53.2,43.0,28.91,ESE,121,7.0,11.0,68,0.00,,,-99.99,FreeWX-Wi 1.01,2013-05-25 07:33:00,
2013-05-25 02:38:00,53.2,43.0,28.91,ESE,121,7.0,10.5,68,0.00,,,-99.99,FreeWX-Wi 1.01,2013-05-25 07:38:00,
2013-05-25 02:43:00,53.4,43.5,28.91,ESE,121,7.0,0.0,69,0.00,,,-99.99,FreeWX-Wi 1.01,2013-05-25 07:43:00,
2013-05-25 02:49:00,53.2,43.0,28.91,ESE,121,7.0,7.6,68,0.00,,,-99.99,FreeWX-Wi 1.01,2013-05-25 07:49:00,
2013-05-25 02:54:00,53.2,43.3,28.91,ESE,121,7.0,0.0,69,0.00,,,-99.99,FreeWX-Wi 1.01,2013-05-25 07:54:00,
2013-05-25 02:59:00,53.2,43.0,28.91,ESE,121,7.0,8.1,68,0.00,,,-99.99,FreeWX-Wi 1.01,2013-05-25 07:59:00,
2013-05-25 03:04:00,53.2,43.3,28.91,ESE,121,7.0,0.0,69,0.00,,,-99.99,FreeWX-Wi 1.01,2013-05-25 08:04:00,
2013-05-25 03:09:00,53.2,43.0,28.91,ESE,120,7.0,8.7,68,0.00,,,-99.99,FreeWX-Wi 1.01,2013-05-25 08:09:00,
2013-05-25 03:14:00,53.2,43.3,28.91,ESE,120,7.0,0.0,69,0.00,,,-99.99,FreeWX-Wi 1.01,2013-05-25 08:14:00,
2013-05-25 03:19:00,53.2,43.3,28.91,ESE,120,7.0,10.5,69,0.00,,,-99.99,FreeWX-Wi 1.01,2013-05-25 08:19:00,
2013-05-25 03:25:00,53.2,43.0,28.91,ESE,120,7.0,0.0,68,0.00,,,-99.99,FreeWX-Wi 1.01,2013-05-25 08:25:00,
2013-05-25 03:30:00,53.2,43.7,28.91,ESE,120,7.0,0.0,70,0.00,,,-99.99,FreeWX-Wi 1.01,2013-05-25 08:30:00,
2013-05-25 03:35:00,53.1,43.2,28.91,ESE,120,7.0,0.0,69,0.00,,,-99.99,FreeWX-Wi 1.01,2013-05-25 08:35:00,
2013-05-25 03:40:00,53.1,43.5,28.91,ESE,120,7.0,8.7,70,0.00,,,-99.99,FreeWX-Wi 1.01,2013-05-25 08:40:00,
2013-05-25 03:45:00,53.1,43.2,28.94,ESE,120,7.0,0.0,69,0.00,,,-99.99,FreeWX-Wi 1.01,2013-05-25 08:45:00,
2013-05-25 03:50:00,53.1,42.8,28.94,ESE,120,7.0,0.0,68,0.00,,,-99.99,FreeWX-Wi 1.01,2013-05-25 08:50:00,
2013-05-25 03:55:00,53.2,43.0,28.94,ESE,120,7.0,11.0,68,0.00,,,-99.99,FreeWX-Wi 1.01,2013-05-25 08:55:00,
2013-05-25 04:00:00,53.2,43.0,28.91,ESE,120,8.0,12.3,68,0.00,,,-99.99,FreeWX-Wi 1.01,2013-05-25 09:00:00,
2013-05-25 04:06:00,53.2,43.3,28.91,ESE,120,8.0,13.2,69,0.00,,,-99.99,FreeWX-Wi 1.01,2013-05-25 09:06:00,
2013-05-25 04:11:00,53.1,42.8,28.91,ESE,120,8.0,10.1,68,0.00,,,-99.99,FreeWX-Wi 1.01,2013-05-25 09:11:00,
2013-05-25 04:16:00,53.2,43.0,28.94,ESE,120,8.0,12.3,68,0.00,,,-99.99,FreeWX-Wi 1.01,2013-05-25 09:16:00,
2013-05-25 04:21:00,53.2,43.0,28.94,ESE,120,8.0,8.0,68,0.00,,,-99.99,FreeWX-Wi 1.01,2013-05-25 09:21:00,
2013-05-25 04:26:00,53.1,43.5,28.94,ESE,121,8.0,12.8,70,0.00,,,-99.99,FreeWX-Wi 1.01,2013-05-25 09:26:00,
2013-05-25 04:31:00,53.1,43.2,28.94,ESE,120,8.0,11.0,69,0.00,,,-99.99,FreeWX-Wi 1.01,2013-05-25 09:31:00,
2013-05-25 04:36:00,53.1,43.9,28.94,ESE,120,8.0,12.8,71,0.00,,,-99.99,FreeWX-Wi 1.01,2013-05-25 09:36:00,
2013-05-25 04:41:00,53.1,43.5,28.94,ESE,119,8.0,12.3,70,0.00,,,-99.99,FreeWX-Wi 1.01,2013-05-25 09:41:00,
2013-05-25 04:46:00,53.1,43.2,28.94,ESE,119,8.0,12.8,69,0.00,,,-99.99,FreeWX-Wi 1.01,2013-05-25 09:46:00,
2013-05-25 04:51:00,52.9,43.0,28.94,ESE,120,8.0,13.2,69,0.00,,,-99.99,FreeWX-Wi 1.01,2013-05-25 09:51:00,
2013-05-25 04:56:00,52.7,42.8,28.94,ESE,120,8.0,8.7,69,0.00,,,-99.99,FreeWX-Wi 1.01,2013-05-25 09:56:00,
2013-05-25 05:01:00,52.7,43.2,28.91,ESE,120,8.0,0.0,70,0.00,,,-99.99,FreeWX-Wi 1.01,2013-05-25 10:01:00,
2013-05-25 05:06:00,52.7,43.2,28.91,ESE,119,8.0,11.0,70,0.00,,,-99.99,FreeWX-Wi 1.01,2013-05-25 10:06:00,
2013-05-25 05:11:00,52.7,43.2,28.91,ESE,118,8.0,12.8,70,0.00,,,-99.99,FreeWX-Wi 1.01,2013-05-25 10:11:00,
2013-05-25 05:16:00,52.5,42.6,28.91,ESE,118,9.0,13.2,69,0.00,,,-99.99,FreeWX-Wi 1.01,2013-05-25 10:16:00,
2013-05-25 05:21:00,52.7,42.8,28.91,ESE,118,9.0,12.8,69,0.00,,,-99.99,FreeWX-Wi 1.01,2013-05-25 10:21:00,
2013-05-25 05:26:00,52.7,42.1,28.91,ESE,117,9.0,14.1,67,0.00,,,-99.99,FreeWX-Wi 1.01,2013-05-25 10:26:00,
2013-05-25 05:32:00,52.7,42.1,28.91,ESE,117,10.0,15.0,67,0.00,,,-99.99,FreeWX-Wi 1.01,2013-05-25 10:32:00,
2013-05-25 05:37:00,52.7,41.7,28.91,ESE,116,10.0,13.6,66,0.00,,,-99.99,FreeWX-Wi 1.01,2013-05-25 10:37:00,
2013-05-25 05:42:00,52.9,41.9,28.91,ESE,118,10.0,15.0,66,0.00,,,-99.99,FreeWX-Wi 1.01,2013-05-25 10:42:00,
2013-05-25 05:47:00,52.5,41.5,28.91,ESE,119,10.0,14.1,66,0.00,,,-99.99,FreeWX-Wi 1.01,2013-05-25 10:47:00,
2013-05-25 05:52:00,52.7,41.7,28.91,ESE,121,10.0,13.2,66,0.00,,,-99.99,FreeWX-Wi 1.01,2013-05-25 10:52:00,
2013-05-25 05:57:00,52.7,41.7,28.91,ESE,123,10.0,15.4,66,0.00,,,-99.99,FreeWX-Wi 1.01,2013-05-25 10:57:00,
2013-05-25 06:02:00,52.9,41.9,28.94,SE,127,11.0,15.4,66,0.00,,,-99.99,FreeWX-Wi 1.01,2013-05-25 11:02:00,
2013-05-25 06:07:00,52.7,41.7,28.94,SE,131,11.0,13.2,66,0.00,,,-99.99,FreeWX-Wi 1.01,2013-05-25 11:07:00,
2013-05-25 06:12:00,52.7,42.1,28.94,SE,134,10.0,11.4,67,0.00,,,-99.99,FreeWX-Wi 1.01,2013-05-25 11:12:00,
2013-05-25 06:17:00,52.7,42.4,28.94,SE,136,10.0,13.2,68,0.00,,,-99.99,FreeWX-Wi 1.01,2013-05-25 11:17:00,
2013-05-25 06:22:00,52.7,42.8,28.94,SE,138,10.0,10.1,69,0.00,,,-99.99,FreeWX-Wi 1.01,2013-05-25 11:22:00,
2013-05-25 06:27:00,52.7,42.8,28.94,SE,137,9.0,10.5,69,0.00,,,-99.99,FreeWX-Wi 1.01,2013-05-25 11:27:00,
2013-05-25 06:32:00,52.5,42.6,28.91,SE,135,9.0,11.9,69,0.00,,,-99.99,FreeWX-Wi 1.01,2013-05-25 11:32:00,
2013-05-25 06:37:00,52.7,42.8,28.91,SE,132,8.0,11.0,69,0.00,,,-99.99,FreeWX-Wi 1.01,2013-05-25 11:37:00,
2013-05-25 06:43:00,52.7,42.8,28.91,SE,128,8.0,11.9,69,0.00,,,-99.99,FreeWX-Wi 1.01,2013-05-25 11:43:00,
2013-05-25 06:48:00,52.7,42.8,28.91,SE,124,9.0,12.8,69,0.00,,,-99.99,FreeWX-Wi 1.01,2013-05-25 11:48:00,
2013-05-25 06:53:00,52.7,42.8,28.91,ESE,122,9.0,13.6,69,0.00,,,-99.99,FreeWX-Wi 1.01,2013-05-25 11:53:00,
2013-05-25 06:58:00,52.7,42.8,28.91,ESE,120,10.0,13.2,69,0.00,,,-99.99,FreeWX-Wi 1.01,2013-05-25 11:58:00,
2013-05-25 07:03:00,52.9,43.0,28.94,ESE,119,10.0,13.6,69,0.00,,,-99.99,FreeWX-Wi 1.01,2013-05-25 12:03:00,
2013-05-25 07:08:00,52.9,42.6,28.94,ESE,117,10.0,13.2,68,0.00,,,-99.99,FreeWX-Wi 1.01,2013-05-25 12:08:00,
2013-05-25 07:13:00,52.9,43.0,28.94,ESE,117,10.0,13.2,69,0.00,,,-99.99,FreeWX-Wi 1.01,2013-05-25 12:13:00,
2013-05-25 07:18:00,52.3,43.9,28.94,ESE,117,10.0,12.8,73,0.00,,,-99.99,FreeWX-Wi 1.01,2013-05-25 12:18:00,
2013-05-25 07:23:00,52.0,43.9,28.94,ESE,117,10.0,0.0,74,0.00,,,-99.99,FreeWX-Wi 1.01,2013-05-25 12:23:00,
2013-05-25 07:28:00,51.8,44.8,28.94,ESE,117,10.0,0.0,77,0.00,,,-99.99,FreeWX-Wi 1.01,2013-05-25 12:28:00,
2013-05-25 07:33:00,51.6,45.3,28.94,ESE,117,10.0,0.0,79,0.00,,,-99.99,FreeWX-Wi 1.01,2013-05-25 12:33:00,
2013-05-25 07:38:00,51.6,46.0,28.94,ESE,117,10.0,0.0,81,0.00,,,-99.99,FreeWX-Wi 1.01,2013-05-25 12:38:00,
2013-05-25 07:44:00,51.6,46.6,28.94,ESE,117,10.0,0.0,83,0.00,,,-99.99,FreeWX-Wi 1.01,2013-05-25 12:44:00,
2013-05-25 07:49:00,51.6,46.9,28.94,ESE,117,10.0,0.0,84,0.00,,,-99.99,FreeWX-Wi 1.01,2013-05-25 12:49:00,
2013-05-25 07:54:00,51.4,47.5,28.94,ESE,117,10.0,0.0,86,0.00,,,-99.99,FreeWX-Wi 1.01,2013-05-25 12:54:00,
2013-05-25 08:00:00,51.6,47.3,28.94,ESE,117,10.0,0.0,85,0.00,,,-99.99,FreeWX-Wi 1.01,2013-05-25 13:00:00,
2013-05-25 08:05:00,51.8,47.1,28.94,ESE,117,10.0,0.0,84,0.00,,,-99.99,FreeWX-Wi 1.01,2013-05-25 13:05:00,
2013-05-25 08:10:00,51.8,46.8,28.94,ESE,117,10.0,0.0,83,0.00,,,-99.99,FreeWX-Wi 1.01,2013-05-25 13:10:00,
2013-05-25 08:15:00,52.0,47.3,28.94,ESE,117,10.0,0.0,84,0.00,,,-99.99,FreeWX-Wi 1.01,2013-05-25 13:15:00,
2013-05-25 08:20:00,52.0,46.6,28.94,ESE,117,10.0,0.0,82,0.00,,,-99.99,FreeWX-Wi 1.01,2013-05-25 13:20:00,
2013-05-25 08:25:00,51.8,46.4,28.94,ESE,117,10.0,0.0,82,0.00,,,-99.99,FreeWX-Wi 1.01,2013-05-25 13:25:00,
2013-05-25 08:30:00,52.0,46.4,28.94,ESE,117,10.0,0.0,81,0.00,,,-99.99,FreeWX-Wi 1.01,2013-05-25 13:30:00,
2013-05-25 08:35:00,51.8,46.4,28.94,ESE,117,10.0,0.0,82,0.00,,,-99.99,FreeWX-Wi 1.01,2013-05-25 13:35:00,
2013-05-25 08:40:00,52.0,46.6,28.94,ESE,117,10.0,0.0,82,0.00,,,-99.99,FreeWX-Wi 1.01,2013-05-25 13:40:00,
2013-05-25 08:45:00,52.0,46.6,28.94,ESE,117,10.0,0.0,82,0.00,,,-99.99,FreeWX-Wi 1.01,2013-05-25 13:45:00,
2013-05-25 08:50:00,52.2,45.5,28.94,ESE,118,10.0,11.9,78,0.00,,,-99.99,FreeWX-Wi 1.01,2013-05-25 13:50:00,
2013-05-25 08:55:00,52.5,43.7,28.94,ESE,119,10.0,17.4,72,0.00,,,-99.99,FreeWX-Wi 1.01,2013-05-25 13:55:00,
2013-05-25 09:00:00,52.7,42.8,28.94,ESE,122,11.0,19.2,69,0.00,,,-99.99,FreeWX-Wi 1.01,2013-05-25 14:00:00,
2013-05-25 09:05:00,52.7,42.4,28.94,SE,126,12.0,22.4,68,0.00,,,-99.99,FreeWX-Wi 1.01,2013-05-25 14:05:00,
2013-05-25 09:10:00,52.5,42.6,28.94,SE,127,12.0,17.9,69,0.00,,,-99.99,FreeWX-Wi 1.01,2013-05-25 14:10:00,
2013-05-25 09:16:00,52.3,43.2,28.94,SE,127,12.0,12.0,71,0.00,,,-99.99,FreeWX-Wi 1.01,2013-05-25 14:16:00,
2013-05-25 09:21:00,52.3,43.2,28.94,SE,127,12.0,0.0,71,0.00,,,-99.99,FreeWX-Wi 1.01,2013-05-25 14:21:00,
2013-05-25 09:26:00,52.3,43.2,28.94,SE,127,12.0,14.5,71,0.00,,,-99.99,FreeWX-Wi 1.01,2013-05-25 14:26:00,
2013-05-25 09:31:00,52.3,43.5,28.94,SE,128,12.0,15.4,72,0.00,,,-99.99,FreeWX-Wi 1.01,2013-05-25 14:31:00,
2013-05-25 09:36:00,52.2,43.3,28.94,SE,128,12.0,19.7,72,0.00,,,-99.99,FreeWX-Wi 1.01,2013-05-25 14:36:00,
2013-05-25 09:41:00,52.2,43.7,28.94,SE,129,13.0,21.9,73,0.00,,,-99.99,FreeWX-Wi 1.01,2013-05-25 14:41:00,
2013-05-25 09:46:00,52.2,44.1,28.91,SE,131,14.0,21.0,74,0.00,,,-99.99,FreeWX-Wi 1.01,2013-05-25 14:46:00,
2013-05-25 09:51:00,52.3,44.6,28.91,SE,133,15.0,20.6,75,0.00,,,-99.99,FreeWX-Wi 1.01,2013-05-25 14:51:00,
2013-05-25 09:56:00,52.3,44.2,28.91,SE,133,16.0,23.3,74,0.00,,,-99.99,FreeWX-Wi 1.01,2013-05-25 14:56:00,
2013-05-25 10:01:00,52.3,44.6,28.91,SE,130,17.0,22.4,75,0.00,,,-99.99,FreeWX-Wi 1.01,2013-05-25 15:01:00,
2013-05-25 10:06:00,52.2,45.5,28.91,SE,127,17.0,23.7,78,0.00,,,-99.99,FreeWX-Wi 1.01,2013-05-25 15:06:00,
2013-05-25 10:11:00,52.0,44.6,28.91,SE,127,18.0,25.5,76,0.00,,,-99.99,FreeWX-Wi 1.01,2013-05-25 15:11:00,
2013-05-25 10:17:00,52.0,44.6,28.91,SE,128,18.0,21.9,76,0.00,,,-99.99,FreeWX-Wi 1.01,2013-05-25 15:17:00,
2013-05-25 10:22:00,52.0,44.2,28.91,SE,129,18.0,25.7,75,0.00,,,-99.99,FreeWX-Wi 1.01,2013-05-25 15:22:00,
2013-05-25 10:27:00,52.0,44.6,28.91,SE,129,18.0,22.4,76,0.00,,,-99.99,FreeWX-Wi 1.01,2013-05-25 15:27:00,
2013-05-25 10:32:00,51.8,44.1,28.91,SE,129,18.0,24.6,75,0.00,,,-99.99,FreeWX-Wi 1.01,2013-05-25 15:32:00,
2013-05-25 10:37:00,51.6,43.5,28.91,SE,130,18.0,27.1,74,0.00,,,-99.99,FreeWX-Wi 1.01,2013-05-25 15:37:00,
2013-05-25 10:42:00,51.8,44.1,28.91,SE,131,17.0,21.0,75,0.00,,,-99.99,FreeWX-Wi 1.01,2013-05-25 15:42:00,
2013-05-25 10:47:00,51.6,43.5,28.91,SE,132,17.0,21.0,74,0.00,,,-99.99,FreeWX-Wi 1.01,2013-05-25 15:47:00,
2013-05-25 10:52:00,51.6,43.3,28.91,SE,132,17.0,22.4,73,0.00,,,-99.99,FreeWX-Wi 1.01,2013-05-25 15:52:00,
2013-05-25 10:57:00,51.8,43.3,28.91,SE,131,17.0,21.9,73,0.00,,,-99.99,FreeWX-Wi 1.01,2013-05-25 15:57:00,
2013-05-25 11:02:00,51.8,43.3,28.91,SE,132,17.0,17.9,73,0.00,,,-99.99,FreeWX-Wi 1.01,2013-05-25 16:02:00,
2013-05-25 11:08:00,51.8,43.3,28.91,SE,132,17.0,20.1,73,0.00,,,-99.99,FreeWX-Wi 1.01,2013-05-25 16:08:00,
2013-05-25 11:13:00,52.0,43.2,28.91,SE,132,17.0,18.3,72,0.00,,,-99.99,FreeWX-Wi 1.01,2013-05-25 16:13:00,
2013-05-25 11:18:00,52.0,43.2,28.94,SE,133,17.0,17.9,72,0.00,,,-99.99,FreeWX-Wi 1.01,2013-05-25 16:18:00,
2013-05-25 11:23:00,52.0,43.2,28.94,SE,133,16.0,16.0,72,0.00,,,-99.99,FreeWX-Wi 1.01,2013-05-25 16:23:00,
2013-05-25 11:28:00,52.2,42.6,28.94,SE,133,16.0,16.0,70,0.00,,,-99.99,FreeWX-Wi 1.01,2013-05-25 16:28:00,
2013-05-25 11:33:00,52.2,42.6,28.94,SE,134,16.0,17.4,70,0.00,,,-99.99,FreeWX-Wi 1.01,2013-05-25 16:33:00,
2013-05-25 11:38:00,52.3,43.2,28.94,SE,135,16.0,18.8,71,0.00,,,-99.99,FreeWX-Wi 1.01,2013-05-25 16:38:00,
2013-05-25 11:43:00,52.3,43.2,28.94,SE,137,16.0,17.4,71,0.00,,,-99.99,FreeWX-Wi 1.01,2013-05-25 16:43:00,
2013-05-25 11:48:00,52.3,43.5,28.97,SE,138,16.0,19.2,72,0.00,,,-99.99,FreeWX-Wi 1.01,2013-05-25 16:48:00,
2013-05-25 11:53:00,52.0,43.9,28.97,SE,141,15.0,19.7,74,0.00,,,-99.99,FreeWX-Wi 1.01,2013-05-25 16:53:00,
2013-05-25 11:59:00,51.6,44.2,28.97,SE,144,15.0,21.9,76,0.04,,,-99.99,FreeWX-Wi 1.01,2013-05-25 16:59:00,
2013-05-25 12:04:00,51.6,44.6,28.97,SSE,147,15.0,23.7,77,0.04,,,-99.99,FreeWX-Wi 1.01,2013-05-25 17:04:00,
2013-05-25 12:09:00,51.6,44.6,28.97,SSE,149,15.0,22.4,77,0.04,,,-99.99,FreeWX-Wi 1.01,2013-05-25 17:09:00,
2013-05-25 12:14:00,51.4,44.8,28.97,SSE,149,16.0,26.6,78,0.04,,,-99.99,FreeWX-Wi 1.01,2013-05-25 17:14:00,
2013-05-25 12:19:00,51.1,45.1,28.94,SSE,149,16.0,22.4,80,0.04,,,-99.99,FreeWX-Wi 1.01,2013-05-25 17:19:00,
2013-05-25 12:24:00,50.7,45.7,28.94,SSE,148,16.0,20.6,83,0.04,,,-99.99,FreeWX-Wi 1.01,2013-05-25 17:24:00,
2013-05-25 12:29:00,50.7,46.0,28.94,SSE,148,16.0,16.0,84,0.04,,,-99.99,FreeWX-Wi 1.01,2013-05-25 17:29:00,
2013-05-25 12:34:00,50.7,45.7,28.97,SSE,147,16.0,16.0,83,0.04,,,-99.99,FreeWX-Wi 1.01,2013-05-25 17:34:00,
2013-05-25 12:39:00,50.7,45.7,28.97,SSE,147,16.0,17.4,83,0.04,,,-99.99,FreeWX-Wi 1.01,2013-05-25 17:39:00,
2013-05-25 12:44:00,50.9,45.9,28.97,SE,146,16.0,16.8,83,0.04,,,-99.99,FreeWX-Wi 1.01,2013-05-25 17:44:00,
2013-05-25 12:49:00,51.3,45.3,28.97,SE,145,15.0,19.2,80,0.04,,,-99.99,FreeWX-Wi 1.01,2013-05-25 17:49:00,
2013-05-25 12:55:00,51.4,45.9,28.97,SE,144,15.0,17.4,81,0.04,,,-99.99,FreeWX-Wi 1.01,2013-05-25 17:55:00,
2013-05-25 13:00:00,51.6,46.0,28.97,SE,144,14.0,18.3,81,0.00,,,-99.99,FreeWX-Wi 1.01,2013-05-25 18:00:00,
2013-05-25 13:05:00,51.8,46.2,28.97,SE,142,14.0,18.3,81,0.00,,,-99.99,FreeWX-Wi 1.01,2013-05-25 18:05:00,
2013-05-25 13:10:00,51.6,46.2,28.97,SE,141,14.0,21.9,82,0.00,,,-99.99,FreeWX-Wi 1.01,2013-05-25 18:10:00,
2013-05-25 13:15:00,51.4,46.0,28.97,SE,140,13.0,17.4,82,0.00,,,-99.99,FreeWX-Wi 1.01,2013-05-25 18:15:00,
2013-05-25 13:20:00,51.6,46.9,28.97,SE,139,13.0,15.0,84,0.00,,,-99.99,FreeWX-Wi 1.01,2013-05-25 18:20:00,
2013-05-25 13:25:00,51.6,46.9,28.97,SE,138,13.0,13.2,84,0.00,,,-99.99,FreeWX-Wi 1.01,2013-05-25 18:25:00,
2013-05-25 13:30:00,51.6,46.0,28.97,SE,138,13.0,15.9,81,0.00,,,-99.99,FreeWX-Wi 1.01,2013-05-25 18:30:00,
2013-05-25 13:35:00,52.0,46.9,28.97,SE,138,13.0,18.8,83,0.00,,,-99.99,FreeWX-Wi 1.01,2013-05-25 18:35:00,
2013-05-25 13:41:00,51.8,45.1,28.97,SE,138,13.0,16.3,78,0.00,,,-99.99,FreeWX-Wi 1.01,2013-05-25 18:41:00,
2013-05-25 13:46:00,52.0,44.6,28.94,SE,138,13.0,0.0,76,0.00,,,-99.99,FreeWX-Wi 1.01,2013-05-25 18:46:00,
2013-05-25 13:51:00,52.3,44.2,28.94,SE,138,13.0,0.0,74,0.00,,,-99.99,FreeWX-Wi 1.01,2013-05-25 18:51:00,
2013-05-25 13:56:00,52.7,45.0,28.94,SE,138,13.0,0.0,75,0.00,,,-99.99,FreeWX-Wi 1.01,2013-05-25 18:56:00,
2013-05-25 14:01:00,52.9,45.1,28.94,SE,138,13.0,0.0,75,0.00,,,-99.99,FreeWX-Wi 1.01,2013-05-25 19:01:00,
2013-05-25 14:06:00,52.9,44.1,28.94,SE,138,13.0,0.0,72,0.00,,,-99.99,FreeWX-Wi 1.01,2013-05-25 19:06:00,
2013-05-25 14:11:00,52.9,43.7,28.94,SE,138,13.0,0.0,71,0.00,,,-99.99,FreeWX-Wi 1.01,2013-05-25 19:11:00,
2013-05-25 14:16:00,52.9,43.7,28.97,SE,138,13.0,0.0,71,0.00,,,-99.99,FreeWX-Wi 1.01,2013-05-25 19:16:00,
2013-05-25 14:21:00,53.1,43.5,28.97,SE,138,13.0,0.0,70,0.00,,,-99.99,FreeWX-Wi 1.01,2013-05-25 19:21:00,
2013-05-25 14:26:00,52.9,43.3,28.97,SE,138,13.0,0.0,70,0.00,,,-99.99,FreeWX-Wi 1.01,2013-05-25 19:26:00,
2013-05-25 14:31:00,53.4,44.6,28.94,SE,138,13.0,0.0,72,0.00,,,-99.99,FreeWX-Wi 1.01,2013-05-25 19:31:00,
2013-05-25 14:36:00,53.2,43.7,28.94,SE,137,14.0,20.6,70,0.00,,,-99.99,FreeWX-Wi 1.01,2013-05-25 19:36:00,
2013-05-25 14:42:00,53.4,44.2,28.94,SE,134,14.0,20.1,71,0.00,,,-99.99,FreeWX-Wi 1.01,2013-05-25 19:42:00,
2013-05-25 14:47:00,53.6,44.1,28.94,SE,132,14.0,24.2,70,0.00,,,-99.99,FreeWX-Wi 1.01,2013-05-25 19:47:00,
2013-05-25 14:52:00,54.0,44.1,28.94,SE,132,14.0,20.1,69,0.00,,,-99.99,FreeWX-Wi 1.01,2013-05-25 19:52:00,
2013-05-25 14:57:00,54.1,43.9,28.94,SE,132,14.0,18.8,68,0.00,,,-99.99,FreeWX-Wi 1.01,2013-05-25 19:57:00,
2013-05-25 15:02:00,54.5,43.7,28.94,SE,131,15.0,23.3,67,0.00,,,-99.99,FreeWX-Wi 1.01,2013-05-25 20:02:00,
2013-05-25 15:07:00,54.3,43.5,28.94,SE,131,15.0,0.0,67,0.00,,,-99.99,FreeWX-Wi 1.01,2013-05-25 20:07:00,
2013-05-25 15:12:00,54.1,43.3,28.94,SE,131,15.0,0.0,67,0.00,,,-99.99,FreeWX-Wi 1.01,2013-05-25 20:12:00,
2013-05-25 15:17:00,54.1,43.3,28.94,SE,131,15.0,20.1,67,0.00,,,-99.99,FreeWX-Wi 1.01,2013-05-25 20:17:00,
2013-05-25 15:22:00,54.3,43.2,28.94,SE,131,15.0,0.0,66,0.00,,,-99.99,FreeWX-Wi 1.01,2013-05-25 20:22:00,
2013-05-25 15:27:00,54.5,43.3,28.94,SE,130,15.0,22.4,66,0.00,,,-99.99,FreeWX-Wi 1.01,2013-05-25 20:27:00,
2013-05-25 15:33:00,54.5,42.6,28.94,SE,130,15.0,0.0,64,0.00,,,-99.99,FreeWX-Wi 1.01,2013-05-25 20:33:00,
2013-05-25 15:38:00,54.7,43.2,28.94,SE,130,15.0,0.0,65,0.00,,,-99.99,FreeWX-Wi 1.01,2013-05-25 20:38:00,
2013-05-25 15:43:00,54.7,42.8,28.94,SE,130,15.0,19.7,64,0.00,,,-99.99,FreeWX-Wi 1.01,2013-05-25 20:43:00,
2013-05-25 15:48:00,54.5,42.6,28.94,SE,130,15.0,0.0,64,0.00,,,-99.99,FreeWX-Wi 1.01,2013-05-25 20:48:00,
2013-05-25 15:53:00,54.7,41.9,28.94,SE,130,15.0,0.0,62,0.00,,,-99.99,FreeWX-Wi 1.01,2013-05-25 20:53:00,
2013-05-25 15:58:00,54.5,42.1,28.94,SE,130,15.0,21.9,63,0.00,,,-99.99,FreeWX-Wi 1.01,2013-05-25 20:58:00,
2013-05-25 16:03:00,54.9,41.7,28.94,SE,129,15.0,23.7,61,0.00,,,-99.99,FreeWX-Wi 1.01,2013-05-25 21:03:00,
2013-05-25 16:08:00,55.6,42.8,28.94,SE,127,16.0,23.3,62,0.00,,,-99.99,FreeWX-Wi 1.01,2013-05-25 21:08:00,
2013-05-25 16:13:00,55.4,41.4,28.94,SE,127,16.0,25.1,59,0.00,,,-99.99,FreeWX-Wi 1.01,2013-05-25 21:13:00,
2013-05-25 16:18:00,55.8,43.0,28.94,SE,127,16.0,25.5,62,0.00,,,-99.99,FreeWX-Wi 1.01,2013-05-25 21:18:00,
2013-05-25 16:23:00,55.8,43.0,28.94,SE,126,17.0,22.8,62,0.00,,,-99.99,FreeWX-Wi 1.01,2013-05-25 21:23:00,
2013-05-25 16:29:00,55.8,42.4,28.94,SE,126,17.0,24.2,61,0.00,,,-99.99,FreeWX-Wi 1.01,2013-05-25 21:29:00,
2013-05-25 16:34:00,55.8,42.1,28.94,SE,125,17.0,24.6,60,0.00,,,-99.99,FreeWX-Wi 1.01,2013-05-25 21:34:00,
2013-05-25 16:39:00,55.0,41.9,28.94,SE,124,17.0,22.8,61,0.00,,,-99.99,FreeWX-Wi 1.01,2013-05-25 21:39:00,
2013-05-25 16:44:00,54.9,42.4,28.94,SE,124,17.0,0.0,63,0.00,,,-99.99,FreeWX-Wi 1.01,2013-05-25 21:44:00,
2013-05-25 16:49:00,54.5,40.8,28.94,ESE,123,17.0,22.4,60,0.00,,,-99.99,FreeWX-Wi 1.01,2013-05-25 21:49:00,
2013-05-25 16:54:00,54.5,40.8,28.94,ESE,123,17.0,0.0,60,0.00,,,-99.99,FreeWX-Wi 1.01,2013-05-25 21:54:00,
2013-05-25 16:59:00,54.5,42.1,28.94,ESE,123,17.0,17.9,63,0.00,,,-99.99,FreeWX-Wi 1.01,2013-05-25 21:59:00,
2013-05-25 17:05:00,54.5,41.7,28.94,ESE,123,17.0,0.0,62,0.00,,,-99.99,FreeWX-Wi 1.01,2013-05-25 22:05:00,
2013-05-25 17:10:00,54.5,42.6,28.94,ESE,123,17.0,17.0,64,0.00,,,-99.99,FreeWX-Wi 1.01,2013-05-25 22:10:00,
2013-05-25 17:15:00,54.5,42.6,28.94,ESE,123,17.0,19.7,64,0.00,,,-99.99,FreeWX-Wi 1.01,2013-05-25 22:15:00,
2013-05-25 17:20:00,54.3,42.1,28.94,ESE,122,17.0,20.6,63,0.00,,,-99.99,FreeWX-Wi 1.01,2013-05-25 22:20:00,
2013-05-25 17:25:00,54.1,42.3,28.94,ESE,122,17.0,0.0,64,0.00,,,-99.99,FreeWX-Wi 1.01,2013-05-25 22:25:00,
2013-05-25 17:30:00,54.1,42.3,28.94,ESE,122,18.0,18.8,64,0.00,,,-99.99,FreeWX-Wi 1.01,2013-05-25 22:30:00,
2013-05-25 17:35:00,54.0,42.1,28.94,ESE,122,18.0,0.0,64,0.00,,,-99.99,FreeWX-Wi 1.01,2013-05-25 22:35:00,
2013-05-25 17:40:00,54.0,42.1,28.94,ESE,121,17.0,17.0,64,0.00,,,-99.99,FreeWX-Wi 1.01,2013-05-25 22:40:00,
2013-05-25 17:45:00,54.1,42.6,28.94,ESE,121,18.0,18.0,65,0.00,,,-99.99,FreeWX-Wi 1.01,2013-05-25 22:45:00,
2013-05-25 17:50:00,54.0,41.7,28.94,ESE,121,18.0,0.0,63,0.00,,,-99.99,FreeWX-Wi 1.01,2013-05-25 22:50:00,
2013-05-25 17:55:00,54.0,41.7,28.94,ESE,121,18.0,18.0,63,0.00,,,-99.99,FreeWX-Wi 1.01,2013-05-25 22:55:00,
2013-05-25 18:00:00,54.1,42.3,28.94,ESE,121,18.0,18.3,64,0.00,,,-99.99,FreeWX-Wi 1.01,2013-05-25 23:00:00,
2013-05-25 18:05:00,54.1,42.6,28.94,ESE,120,18.0,21.0,65,0.00,,,-99.99,FreeWX-Wi 1.01,2013-05-25 23:05:00,
2013-05-25 18:11:00,54.1,42.6,28.94,ESE,119,17.0,19.7,65,0.00,,,-99.99,FreeWX-Wi 1.01,2013-05-25 23:11:00,
2013-05-25 18:16:00,54.1,41.9,28.94,ESE,119,17.0,19.7,63,0.00,,,-99.99,FreeWX-Wi 1.01,2013-05-25 23:16:00,
2013-05-25 18:21:00,54.0,41.7,28.94,ESE,119,16.0,19.2,63,0.00,,,-99.99,FreeWX-Wi 1.01,2013-05-25 23:21:00,
2013-05-25 18:26:00,54.0,40.5,28.94,ESE,119,15.0,18.3,60,0.00,,,-99.99,FreeWX-Wi 1.01,2013-05-25 23:26:00,
2013-05-25 18:31:00,54.0,40.5,28.94,ESE,119,15.0,20.6,60,0.00,,,-99.99,FreeWX-Wi 1.01,2013-05-25 23:31:00,
2013-05-25 18:36:00,54.0,41.2,28.94,ESE,119,16.0,22.4,62,0.00,,,-99.99,FreeWX-Wi 1.01,2013-05-25 23:36:00,
2013-05-25 18:41:00,53.8,41.0,28.94,ESE,119,16.0,18.8,62,0.00,,,-99.99,FreeWX-Wi 1.01,2013-05-25 23:41:00,
2013-05-25 18:46:00,53.8,41.0,28.94,ESE,119,16.0,17.4,62,0.00,,,-99.99,FreeWX-Wi 1.01,2013-05-25 23:46:00,
2013-05-25 18:51:00,53.6,39.6,28.94,ESE,119,16.0,21.0,59,0.00,,,-99.99,FreeWX-Wi 1.01,2013-05-25 23:51:00,
2013-05-25 18:56:00,53.6,39.6,28.94,ESE,119,16.0,0.0,59,0.00,,,-99.99,FreeWX-Wi 1.01,2013-05-25 23:56:00,
2013-05-25 19:01:00,53.4,39.0,28.91,ESE,119,16.0,0.0,58,0.00,,,-99.99,FreeWX-Wi 1.01,2013-05-26 00:01:00,
2013-05-25 19:06:00,53.6,39.6,28.91,ESE,119,16.0,16.0,59,0.00,,,-99.99,FreeWX-Wi 1.01,2013-05-26 00:06:00,
2013-05-25 19:12:00,53.6,39.6,28.91,ESE,119,16.0,21.5,59,0.00,,,-99.99,FreeWX-Wi 1.01,2013-05-26 00:12:00,
2013-05-25 19:17:00,53.4,39.0,28.91,ESE,119,16.0,19.7,58,0.00,,,-99.99,FreeWX-Wi 1.01,2013-05-26 00:17:00,
2013-05-25 19:22:00,53.4,39.4,28.91,ESE,119,16.0,20.6,59,0.00,,,-99.99,FreeWX-Wi 1.01,2013-05-26 00:22:00,
2013-05-25 19:27:00,53.4,39.4,28.91,ESE,119,16.0,16.0,59,0.00,,,-99.99,FreeWX-Wi 1.01,2013-05-26 00:27:00,
2013-05-25 19:32:00,53.2,39.7,28.94,ESE,119,16.0,0.0,60,0.00,,,-99.99,FreeWX-Wi 1.01,2013-05-26 00:32:00,
2013-05-25 19:37:00,53.2,40.6,28.94,ESE,120,16.0,16.0,62,0.00,,,-99.99,FreeWX-Wi 1.01,2013-05-26 00:37:00,
2013-05-25 19:42:00,53.1,40.5,28.94,ESE,120,16.0,16.0,62,0.00,,,-99.99,FreeWX-Wi 1.01,2013-05-26 00:42:00,
2013-05-25 19:47:00,53.1,40.8,28.94,ESE,120,16.0,0.0,63,0.00,,,-99.99,FreeWX-Wi 1.01,2013-05-26 00:47:00,
2013-05-25 19:53:00,52.9,41.0,28.94,ESE,120,16.0,0.0,64,0.00,,,-99.99,FreeWX-Wi 1.01,2013-05-26 00:53:00,
2013-05-25 19:58:00,52.9,40.6,28.94,ESE,120,16.0,0.0,63,0.00,,,-99.99,FreeWX-Wi 1.01,2013-05-26 00:58:00,
2013-05-25 20:03:00,52.9,40.3,28.94,ESE,119,15.0,17.4,62,0.00,,,-99.99,FreeWX-Wi 1.01,2013-05-26 01:03:00,
2013-05-25 20:08:00,52.7,40.1,28.94,ESE,119,15.0,15.9,62,0.00,,,-99.99,FreeWX-Wi 1.01,2013-05-26 01:08:00,
2013-05-25 20:13:00,52.5,39.0,28.94,ESE,119,15.0,19.7,60,0.00,,,-99.99,FreeWX-Wi 1.01,2013-05-26 01:13:00,
2013-05-25 20:18:00,52.5,39.4,28.94,ESE,119,15.0,19.2,61,0.00,,,-99.99,FreeWX-Wi 1.01,2013-05-26 01:18:00,
2013-05-25 20:23:00,52.3,39.4,28.94,ESE,119,15.0,17.4,61,0.00,,,-99.99,FreeWX-Wi 1.01,2013-05-26 01:23:00,
2013-05-25 20:28:00,52.2,39.9,28.94,ESE,120,15.0,16.8,63,0.00,,,-99.99,FreeWX-Wi 1.01,2013-05-26 01:28:00,
2013-05-25 20:33:00,52.3,39.7,28.94,ESE,120,14.0,14.0,62,0.00,,,-99.99,FreeWX-Wi 1.01,2013-05-26 01:33:00,
2013-05-25 20:38:00,52.2,39.9,28.94,ESE,120,14.0,15.4,63,0.00,,,-99.99,FreeWX-Wi 1.01,2013-05-26 01:38:00,
2013-05-25 20:43:00,52.2,40.3,28.94,ESE,122,14.0,15.0,64,0.00,,,-99.99,FreeWX-Wi 1.01,2013-05-26 01:43:00,
2013-05-25 20:48:00,52.2,39.9,28.94,SE,124,13.0,15.4,63,0.00,,,-99.99,FreeWX-Wi 1.01,2013-05-26 01:48:00,
2013-05-25 20:54:00,52.0,40.1,28.94,SE,126,13.0,17.4,64,0.00,,,-99.99,FreeWX-Wi 1.01,2013-05-26 01:54:00,
2013-05-25 20:59:00,52.0,39.0,28.94,SE,128,12.0,15.4,61,0.00,,,-99.99,FreeWX-Wi 1.01,2013-05-26 01:59:00,
2013-05-25 21:04:00,51.8,38.3,28.94,SE,130,12.0,16.3,60,0.00,,,-99.99,FreeWX-Wi 1.01,2013-05-26 02:04:00,
2013-05-25 21:09:00,51.8,37.9,28.94,SE,133,12.0,17.4,59,0.00,,,-99.99,FreeWX-Wi 1.01,2013-05-26 02:09:00,
2013-05-25 21:14:00,51.8,38.3,28.94,SE,134,12.0,17.4,60,0.00,,,-99.99,FreeWX-Wi 1.01,2013-05-26 02:14:00,
2013-05-25 21:19:00,51.6,38.7,28.94,SE,134,12.0,18.3,61,0.00,,,-99.99,FreeWX-Wi 1.01,2013-05-26 02:19:00,
2013-05-25 21:24:00,51.6,39.0,28.94,SE,133,12.0,15.4,62,0.00,,,-99.99,FreeWX-Wi 1.01,2013-05-26 02:24:00,
2013-05-25 21:29:00,51.8,38.8,28.94,SE,133,12.0,15.4,61,0.00,,,-99.99,FreeWX-Wi 1.01,2013-05-26 02:29:00,
2013-05-25 21:34:00,51.6,39.0,28.94,SE,132,12.0,15.0,62,0.00,,,-99.99,FreeWX-Wi 1.01,2013-05-26 02:34:00,
2013-05-25 21:39:00,51.6,39.4,28.94,SE,130,12.0,15.9,63,0.00,,,-99.99,FreeWX-Wi 1.01,2013-05-26 02:39:00,
2013-05-25 21:44:00,51.6,39.0,28.94,SE,129,12.0,18.3,62,0.00,,,-99.99,FreeWX-Wi 1.01,2013-05-26 02:44:00,
2013-05-25 21:50:00,51.6,39.9,28.94,SE,129,12.0,18.8,64,0.00,,,-99.99,FreeWX-Wi 1.01,2013-05-26 02:50:00,
2013-05-25 21:55:00,51.4,40.1,28.94,SE,129,13.0,18.3,65,0.00,,,-99.99,FreeWX-Wi 1.01,2013-05-26 02:55:00,
2013-05-25 22:00:00,51.4,40.5,28.94,SE,130,13.0,19.2,66,0.00,,,-99.99,FreeWX-Wi 1.01,2013-05-26 03:00:00,
2013-05-25 22:05:00,51.4,40.5,28.94,SE,129,13.0,17.0,66,0.00,,,-99.99,FreeWX-Wi 1.01,2013-05-26 03:05:00,
2013-05-25 22:10:00,51.4,40.8,28.94,SE,129,13.0,16.3,67,0.00,,,-99.99,FreeWX-Wi 1.01,2013-05-26 03:10:00,
2013-05-25 22:15:00,51.3,40.3,28.94,SE,128,13.0,16.8,66,0.00,,,-99.99,FreeWX-Wi 1.01,2013-05-26 03:15:00,
2013-05-25 22:20:00,51.3,40.6,28.94,SE,127,13.0,16.8,67,0.00,,,-99.99,FreeWX-Wi 1.01,2013-05-26 03:20:00,
2013-05-25 22:25:00,51.3,41.0,28.94,SE,125,13.0,15.0,68,0.00,,,-99.99,FreeWX-Wi 1.01,2013-05-26 03:25:00,
2013-05-25 22:30:00,51.3,41.0,28.94,ESE,122,13.0,15.4,68,0.00,,,-99.99,FreeWX-Wi 1.01,2013-05-26 03:30:00,
2013-05-25 22:35:00,51.3,41.4,28.94,ESE,120,13.0,15.9,69,0.00,,,-99.99,FreeWX-Wi 1.01,2013-05-26 03:35:00,
2013-05-25 22:40:00,51.1,41.2,28.94,ESE,119,13.0,13.2,69,0.00,,,-99.99,FreeWX-Wi 1.01,2013-05-26 03:40:00,
2013-05-25 22:45:00,51.1,41.7,28.94,ESE,119,13.0,15.0,70,0.00,,,-99.99,FreeWX-Wi 1.01,2013-05-26 03:45:00,
2013-05-25 22:51:00,51.1,41.2,28.94,ESE,117,13.0,15.9,69,0.00,,,-99.99,FreeWX-Wi 1.01,2013-05-26 03:51:00,
2013-05-25 22:56:00,51.1,41.2,28.94,ESE,115,12.0,17.4,69,0.00,,,-99.99,FreeWX-Wi 1.01,2013-05-26 03:56:00,
2013-05-25 23:01:00,51.1,40.8,28.94,ESE,114,12.0,15.0,68,0.00,,,-99.99,FreeWX-Wi 1.01,2013-05-26 04:01:00,
2013-05-25 23:06:00,50.9,40.6,28.94,ESE,114,12.0,15.4,68,0.00,,,-99.99,FreeWX-Wi 1.01,2013-05-26 04:06:00,
2013-05-25 23:11:00,50.9,41.2,28.94,ESE,112,12.0,15.4,69,0.00,,,-99.99,FreeWX-Wi 1.01,2013-05-26 04:11:00,
2013-05-25 23:16:00,50.9,41.5,28.94,ESE,111,12.0,14.5,70,0.00,,,-99.99,FreeWX-Wi 1.01,2013-05-26 04:16:00,
2013-05-25 23:21:00,50.9,41.5,28.94,ESE,112,12.0,15.4,70,0.00,,,-99.99,FreeWX-Wi 1.01,2013-05-26 04:21:00,
2013-05-25 23:26:00,50.7,41.7,28.94,ESE,112,11.0,13.2,71,0.00,,,-99.99,FreeWX-Wi 1.01,2013-05-26 04:26:00,
2013-05-25 23:31:00,50.7,41.7,28.94,ESE,113,11.0,15.4,71,0.00,,,-99.99,FreeWX-Wi 1.01,2013-05-26 04:31:00,
2013-05-25 23:36:00,50.7,41.7,28.94,ESE,114,11.0,17.4,71,0.00,,,-99.99,FreeWX-Wi 1.01,2013-05-26 04:36:00,
2013-05-25 23:41:00,50.5,41.9,28.94,ESE,116,12.0,15.4,72,0.00,,,-99.99,FreeWX-Wi 1.01,2013-05-26 04:41:00,
2013-05-25 23:47:00,50.4,41.4,28.91,ESE,118,12.0,17.4,71,0.00,,,-99.99,FreeWX-Wi 1.01,2013-05-26 04:47:00,
2013-05-25 23:52:00,50.4,41.7,28.91,ESE,120,12.0,13.2,72,0.00,,,-99.99,FreeWX-Wi 1.01,2013-05-26 04:52:00,
2013-05-25 23:57:00,50.4,42.1,28.91,ESE,121,11.0,15.0,73,0.00,,,-99.99,FreeWX-Wi 1.01,2013-05-26 04:57:00,